Change the Weather History Date:

Sunday, September 8, 2013

  Actual Average Record
Temperature  
Mean Temperature 80 °F -  
Max Temperature 93 °F 79 °F 93 °F (2013)
Min Temperature 69 °F 58 °F 45 °F (2012)
Cooling Degree Days 16    
Growing Degree Days 30 (Base 50)    
Moisture  
Dew Point 72 °F    
Average Humidity 85    
Maximum Humidity 100    
Minimum Humidity 51    
Precipitation  
Precipitation 0.00 in - - ()
Sea Level Pressure  
Sea Level Pressure 29.86 in    
Wind  
Wind Speed 4 mph (East)    
Max Wind Speed 13 mph    
Max Gust Speed -    
Visibility 9 miles    
Events Rain    
Averages and records for this station are not official NWS values.
T = Trace of Precipitation, MM = Missing Value Source: NWS Daily Summary

Daily Weather History Graph

Daily Weather History Graph

Search for Another Location

Airport or City:

Trip Planner

Search our weather history database for the weather conditions in past years. The results will help you decide how hot, cold, wet, or windy it might be!

Date:

Astronomy

Sep. 08, 2013 Rise Set
Actual Time 6:57 AM CDT 7:44 PM CDT
Civil Twilight 6:29 AM CDT 8:12 PM CDT
Nautical Twilight 5:56 AM CDT 8:45 PM CDT
Astronomical Twilight 5:22 AM CDT 9:19 PM CDT
Moon 10:18 AM CDT (9/8) 9:17 PM CDT (9/8)
Length of Visible Light 13h 42m
Length of Day
12h 46m
Waxing Crescent, 11% of the Moon is Illuminated
Sep 8
Waxing Crescent
Sep 12
First Quarter
Sep 19
Full
Sep 26
Last Quarter
Oct 4
New

Hourly Weather History & Observations

Time (CDT) Temp. Heat Index Dew Point Humidity Pressure Visibility Wind Dir Wind Speed Gust Speed Precip Events Conditions
12:18 AM 73.4 °F - 71.6 °F 94% 29.92 in 8.0 mi Calm Calm - N/A   Clear
12:48 AM 71.6 °F - 71.6 °F 100% 29.92 in 2.5 mi Calm Calm - N/A   Clear
12:58 AM 70.9 °F - 70.9 °F 100% 29.91 in 6.0 mi NE 3.5 mph - N/A   Clear
1:58 AM 72.0 °F - 72.0 °F 100% 29.91 in 10.0 mi ENE 2.3 mph - N/A   Clear
2:58 AM 72.7 °F - 72.3 °F 99% 29.90 in 10.0 mi NE 2.3 mph - N/A   Clear
3:58 AM 71.8 °F - 71.4 °F 99% 29.90 in 10.0 mi Variable 3.5 mph - N/A   Clear
4:58 AM 71.4 °F - 71.2 °F 99% 29.90 in 10.0 mi NE 3.5 mph - N/A   Clear
5:48 AM 71.6 °F - 71.6 °F 100% 29.89 in 9.0 mi East 1.2 mph - N/A   Clear
5:58 AM 71.2 °F - 70.9 °F 99% 29.87 in 10.0 mi East 3.5 mph - N/A   Clear
6:13 AM 69.8 °F - 69.8 °F 100% 29.88 in 10.0 mi ENE 3.5 mph - N/A   Clear
6:18 AM 69.8 °F - 69.8 °F 100% 29.88 in 10.0 mi ENE 2.3 mph - N/A   Clear
6:43 AM 69.8 °F - 69.8 °F 100% 29.88 in 6.0 mi NE 3.5 mph - N/A   Clear
6:48 AM 69.8 °F - 69.8 °F 100% 29.88 in 6.0 mi NE 2.3 mph - N/A   Clear
6:58 AM 70.0 °F - 70.0 °F 100% 29.87 in 5.0 mi Calm Calm - N/A   Clear
7:58 AM 72.1 °F - 71.8 °F 99% 29.88 in 7.0 mi NE 4.6 mph - N/A   Clear
8:58 AM 77.0 °F - 73.0 °F 88% 29.88 in 10.0 mi ENE 4.6 mph - N/A   Clear
9:32 AM 78.8 °F - 73.4 °F 83% 29.90 in 10.0 mi East 4.6 mph - N/A Rain Light Rain
9:37 AM 78.8 °F - 73.4 °F 83% 29.90 in 10.0 mi ENE 5.8 mph - N/A   Clear
9:58 AM 78.8 °F - 73.0 °F 82% 29.89 in 10.0 mi ENE 5.8 mph - 0.00 in   Clear
10:58 AM 80.4 °F 85.3 °F 73.9 °F 81% 29.90 in 10.0 mi ENE 5.8 mph - N/A   Clear
11:58 AM 83.7 °F 90.7 °F 74.3 °F 73% 29.88 in 10.0 mi East 9.2 mph - N/A   Clear
12:11 PM 86.0 °F 93.4 °F 73.4 °F 66% 29.89 in 10.0 mi East 8.1 mph - N/A   Light Drizzle
12:18 PM 86.0 °F 95.1 °F 75.2 °F 70% 29.89 in 10.0 mi East 9.2 mph - N/A   Clear
12:58 PM 87.3 °F 95.8 °F 74.3 °F 65% 29.87 in 10.0 mi ESE 12.7 mph - 0.00 in   Clear
1:58 PM 90.1 °F 99.4 °F 74.3 °F 59% 29.85 in 10.0 mi ESE 8.1 mph - N/A   Clear
2:58 PM 91.6 °F 102.9 °F 75.2 °F 59% 29.83 in 10.0 mi East 8.1 mph - N/A   Clear
3:58 PM 92.8 °F 102.2 °F 73.4 °F 53% 29.81 in 10.0 mi ESE 6.9 mph - N/A   Clear
4:58 PM 92.7 °F 100.5 °F 72.1 °F 51% 29.81 in 10.0 mi ESE 8.1 mph - N/A   Clear
5:58 PM 91.2 °F 99.7 °F 72.9 °F 55% 29.79 in 10.0 mi ESE 10.4 mph - N/A   Clear
6:58 PM 89.1 °F 96.5 °F 72.3 °F 58% 29.78 in 10.0 mi SSE 4.6 mph - N/A   Clear
7:58 PM 82.4 °F 87.9 °F 73.0 °F 73% 29.79 in 10.0 mi ESE 3.5 mph - N/A   Clear
8:58 PM 75.4 °F - 74.1 °F 96% 29.79 in 10.0 mi East 4.6 mph - N/A   Clear
9:58 PM 74.7 °F - 73.9 °F 98% 29.79 in 10.0 mi East 4.6 mph - N/A   Clear
10:58 PM 73.8 °F - 72.5 °F 96% 29.80 in 10.0 mi ESE 4.6 mph - N/A   Clear
11:58 PM 72.3 °F - 72.1 °F 99% 29.79 in 10.0 mi ESE 4.6 mph - N/A   Clear